Location: ??
(35.4032°N, 139.3073°E)
Time: 13:22:41
(UTC+00:00)

ATLAS 2AS CENTAUR R/B - Pass Details

Date: 13 April 2024
Orbit: 1016 x 1195 km, 63.7° (Epoch: 27 May)

Event Time Altitude Azimuth Distance (km) Brightness Sun altitude
Exits shadow 18:00:10 28° 179° (S) 2,040 3.8 -25.5°
Maximum altitude 18:04:03 55° 115° (ESE) 1,376 3.3 -24.8°
Drops below altitude 10° 18:11:06 10° 40° (NE) 3,031 6.0 -23.6°
Sets 18:13:48 0° 36° (NE) 3,969 6.8 -23.1°
